Station WEXM1 - Laudholm Farm, Wells Reserve, ME Image indicating link to RSS feed of recent meteorological observations for station WEXM1


Conditions at WEXM1 as of
(9:00 pm EDT on 04/15/2024)
0100 GMT on 04/16/2024:
     

Click on the graph icon in the table below to see a time series plot of the last five days of that observation.

5-day plot - Wind Direction Wind Direction (WDIR): W ( 260 deg true )
5-day plot - Wind Speed Wind Speed (WSPD): 1.9 kts
5-day plot - Air Temperature Air Temperature (ATMP): 53.1 °F
5-day plot - Dew Point Dew Point (DEWP): 37.9 °F
Previous observations
TIME
(EDT)
5-day plot - Wind Direction
WDIR
 
5-day plot - Wind Speed
WSPD
kts
5-day plot - Wind Gust
GST
kts
5-day plot - Wave Height
WVHT
ft
5-day plot - Dominant Wave Period
DPD
sec
5-day plot - Average Wave Period
APD
sec
5-day plot - Mean Wave Direction
MWD
 
5-day plot - Atmospheric Pressure
PRES
in
5-day plot - Pressure Tendency
PTDY
in
5-day plot - Air Temperature
ATMP
°F
5-day plot - Water Temperature
WTMP
°F
5-day plot - Dew Point
DEWP
°F
5-day plot - Salinity
SAL
psu
5-day plot - Visibility
VIS
nmi
5-day plot - Tide (above MLLW)
TIDE
ft
2024-04-15 08:45 pm W 1.9------- 53.6- 38.5---
2024-04-15 08:30 pm W 2.9------- 54.3- 38.7---
2024-04-15 08:15 pmWNW 2.9------- 54.5- 38.8---
2024-04-15 08:00 pm W 4.1------- 54.9- 39.2---
2024-04-15 07:45 pm W 2.9------- 55.2- 39.0---
2024-04-15 07:30 pm W 2.9------- 55.8- 39.0---
2024-04-15 07:15 pmWNW 4.1------- 56.5- 39.2---
2024-04-15 07:00 pm W 5.1------- 57.0- 39.2---
2024-04-15 06:45 pmWNW 6.0------- 57.4- 39.2---
2024-04-15 06:30 pmWNW 7.0------- 57.9- 40.6---
2024-04-15 06:15 pmWNW 6.0------- 57.7- 41.0---
2024-04-15 06:00 pmWNW 7.0------- 57.7- 41.0---
2024-04-15 05:45 pmWNW 8.9------- 59.0- 41.5---
2024-04-15 05:30 pmWNW 7.0------- 59.4- 41.9---
2024-04-15 05:15 pmWNW 7.0------- 60.3- 41.7---
2024-04-15 05:00 pm W 7.0------- 61.5- 41.9---
2024-04-15 04:45 pmWNW 5.1------- 59.9- 43.0---
2024-04-15 04:30 pmNNW 1.9------- 55.4- 46.2---
2024-04-15 04:15 pm S 1.9------- 52.7- 45.9---
2024-04-15 04:00 pm S 1.9------- 52.3- 45.5---
2024-04-15 03:45 pmSSE 2.9------- 52.9- 45.7---
2024-04-15 03:30 pm S 2.9------- 54.9- 45.7---
2024-04-15 03:15 pmSSE 4.1------- 56.8- 46.9---
2024-04-15 03:00 pmSSE 5.1------- 54.9- 46.8---
2024-04-15 02:45 pmSSE 4.1------- 54.5- 46.6---
2024-04-15 02:30 pmESE 5.1------- 54.3- 46.4---
2024-04-15 02:15 pmESE 5.1------- 53.8- 46.6---
2024-04-15 02:00 pmESE 4.1------- 54.9- 46.8---
2024-04-15 01:45 pmESE 4.1------- 51.6- 46.4---
2024-04-15 01:30 pm E 4.1------- 50.9- 46.0---
2024-04-15 01:15 pmESE 4.1------- 51.3- 46.0---
2024-04-15 01:00 pm SE 4.1------- 52.9- 46.6---
2024-04-15 12:45 pm SE 5.1------- 53.8- 46.8---
2024-04-15 12:30 pm SE 4.1------- 54.7- 46.9---
2024-04-15 12:15 pmSSE 4.1------- 55.6- 47.5---
2024-04-15 12:00 pm SE 5.1------- 54.3- 47.3---
2024-04-15 11:45 amSSE 5.1------- 53.1- 46.8---
2024-04-15 11:30 amSSE 7.0------- 52.0- 45.7---
2024-04-15 11:15 amSSE 6.0------- 52.5- 45.3---
2024-04-15 10:00 amSSE 2.9------- 56.7- 46.0---
2024-04-15 09:45 amSSE 2.9------- 56.5- 46.2---
2024-04-15 09:30 amSSE 2.9------- 55.6- 46.4---
2024-04-15 09:15 am S 1.9------- 54.0- 45.7---
2024-04-15 09:00 am E 1.9------- 52.3- 46.0---
2024-04-15 08:45 am NE 1.9------- 52.2- 45.3---
2024-04-15 08:30 am- 0.0------- 51.6- 45.3---
2024-04-15 08:15 amWNW 1.0------- 49.1- 45.7---
2024-04-15 08:00 amWNW 1.9------- 47.1- 45.5---
2024-04-15 07:45 amWNW 1.9------- 45.7- 45.0---
2024-04-15 07:30 am NW 2.9------- 43.5- 43.3---
2024-04-15 07:15 amWNW 1.0------- 42.4- 42.3---
2024-04-15 07:00 am- 0.0------- 41.9- 41.7---
2024-04-15 06:45 amWSW 1.9------- 40.3- 40.1---
2024-04-15 06:30 amSSW 2.9------- 38.3- 38.1---
2024-04-15 06:15 amSSW 2.9------- 39.9- 39.9---
2024-04-15 06:00 am W 1.9------- 40.6- 40.6---
2024-04-15 05:45 am W 1.0------- 40.5- 40.5---
2024-04-15 05:30 am W 1.0------- 40.3- 40.3---
2024-04-15 05:15 am W 1.0------- 41.0- 41.0---
2024-04-15 05:00 am SW 1.9------- 41.0- 41.0---
2024-04-15 04:45 amSSW 2.9------- 40.5- 40.3---
2024-04-15 04:30 am SW 1.9------- 41.0- 40.8---
2024-04-15 04:15 amSSW 1.0------- 40.6- 40.5---
2024-04-15 04:00 am- 0.0------- 41.4- 41.2---
2024-04-15 03:45 am- 0.0------- 40.6- 40.5---
2024-04-15 03:30 am- 0.0------- 41.5- 41.4---
2024-04-15 03:15 amWNW 1.0------- 42.8- 42.6---
2024-04-15 03:00 am NW 2.9------- 42.8- 42.3---
2024-04-15 02:45 am NW 1.9------- 42.6- 42.1---
2024-04-15 02:30 am- 0.0------- 43.2- 42.6---
2024-04-15 02:15 am- 0.0------- 43.2- 42.4---
2024-04-15 02:00 am- 0.0------- 43.3- 42.6---
2024-04-15 01:45 am- 0.0------- 43.9- 43.2---
2024-04-15 01:30 am- 0.0------- 44.8- 44.1---
2024-04-15 01:15 am N 2.9------- 44.8- 43.7---
2024-04-15 01:00 am N 2.9------- 44.2- 43.2---
2024-04-15 12:45 amNNE 1.9------- 45.3- 44.1---
2024-04-15 12:30 am- 0.0------- 45.9- 44.2---
2024-04-15 12:15 am- 0.0------- 45.7- 44.1---
2024-04-15 12:00 am N 1.9------- 45.5- 43.9---
2024-04-14 11:45 pmNNE 2.9------- 45.3- 44.1---
2024-04-14 11:30 pm N 1.0------- 45.7- 44.4---
2024-04-14 11:15 pmESE 1.9------- 45.9- 44.8---
2024-04-14 11:00 pm E 1.0------- 46.9- 45.9---
2024-04-14 10:45 pm- 0.0------- 47.3- 46.2---
2024-04-14 10:30 pm- 0.0------- 47.1- 46.0---
2024-04-14 10:15 pm- 0.0------- 46.9- 45.7---
2024-04-14 10:00 pm- 0.0------- 47.1- 45.9---